Orbital elements:
2011 HZ102
Epoch 2012 Sept. 30.0 TT = JDT 2456200.5 MPC
M 261.33163 (2000.0) P Q
n 0.00349189 Peri. 223.11023 +0.95188329 -0.30593972
a 43.0291480 Node 154.68807 +0.29130703 +0.88517410
e 0.0069918 Incl. 2.39457 +0.09517574 +0.35052488
P 282 H 9.4 G 0.15 U 5